Year,Month,Day,Hour,Minute,Value (Times are PST for temperature in C)
2020,03,20,00,00,5.10
2020,03,20,00,01,5.10
2020,03,20,00,02,5.10
2020,03,20,00,03,5.10
2020,03,20,00,04,5.10
2020,03,20,00,05,5.10
2020,03,20,00,06,5.10
2020,03,20,00,07,5.10
2020,03,20,00,08,5.20
2020,03,20,00,09,5.30
2020,03,20,00,10,5.30
2020,03,20,00,11,5.40
2020,03,20,00,12,5.40
2020,03,20,00,13,5.40
2020,03,20,00,14,5.40
2020,03,20,00,15,5.40
2020,03,20,00,16,5.40
2020,03,20,00,17,5.40
2020,03,20,00,18,5.50
2020,03,20,00,19,5.50
2020,03,20,00,20,5.50
2020,03,20,00,21,5.50
2020,03,20,00,22,5.50
2020,03,20,00,23,5.40
2020,03,20,00,24,5.40
2020,03,20,00,25,5.40
2020,03,20,00,26,5.30
2020,03,20,00,27,5.30
2020,03,20,00,28,5.30
2020,03,20,00,29,5.30
2020,03,20,00,30,5.30
2020,03,20,00,31,5.30
2020,03,20,00,32,5.30
2020,03,20,00,33,5.30
2020,03,20,00,34,5.30
2020,03,20,00,35,5.30
2020,03,20,00,36,5.30
2020,03,20,00,37,5.30
2020,03,20,00,38,5.30
2020,03,20,00,39,5.30
2020,03,20,00,40,5.30
2020,03,20,00,41,5.30
2020,03,20,00,42,5.30
2020,03,20,00,43,5.30
2020,03,20,00,44,5.30
2020,03,20,00,45,5.30
2020,03,20,00,46,5.30
2020,03,20,00,47,5.30
2020,03,20,00,48,5.30
2020,03,20,00,49,5.30
2020,03,20,00,50,5.30
2020,03,20,00,51,5.30
2020,03,20,00,52,5.30
2020,03,20,00,53,5.30
2020,03,20,00,54,5.30
2020,03,20,00,55,5.20
2020,03,20,00,56,5.20
2020,03,20,00,57,5.20
2020,03,20,00,58,5.20
2020,03,20,00,59,5.20
2020,03,20,01,00,5.10
2020,03,20,01,01,5.10
2020,03,20,01,02,5.10
2020,03,20,01,03,5.10
2020,03,20,01,04,5.10
2020,03,20,01,05,5.10
2020,03,20,01,06,5.10
2020,03,20,01,07,5.10
2020,03,20,01,08,5.10
2020,03,20,01,09,5.10
2020,03,20,01,10,5.00
2020,03,20,01,11,4.90
2020,03,20,01,12,4.90
2020,03,20,01,13,4.90
2020,03,20,01,14,4.90
2020,03,20,01,15,4.90
2020,03,20,01,16,4.90
2020,03,20,01,17,4.90
2020,03,20,01,18,4.90
2020,03,20,01,19,4.90
2020,03,20,01,20,4.90
2020,03,20,01,21,4.90
2020,03,20,01,22,4.90
2020,03,20,01,23,4.90
2020,03,20,01,24,4.90
2020,03,20,01,25,5.00
2020,03,20,01,26,5.10
2020,03,20,01,27,5.10
2020,03,20,01,28,5.10
2020,03,20,01,29,5.10
2020,03,20,01,30,5.10
2020,03,20,01,31,5.10
2020,03,20,01,32,5.10
2020,03,20,01,33,5.10
2020,03,20,01,34,5.10
2020,03,20,01,35,5.10
2020,03,20,01,36,5.10
2020,03,20,01,37,5.10
2020,03,20,01,38,5.10
2020,03,20,01,39,5.20
2020,03,20,01,40,5.20
2020,03,20,01,41,5.30
2020,03,20,01,42,5.30
2020,03,20,01,43,5.30
2020,03,20,01,44,5.30
2020,03,20,01,45,5.30
2020,03,20,01,46,5.30
2020,03,20,01,47,5.30
2020,03,20,01,48,5.30
2020,03,20,01,49,5.30
2020,03,20,01,50,5.20
2020,03,20,01,51,5.20
2020,03,20,01,52,5.10
2020,03,20,01,53,5.10
2020,03,20,01,54,5.10
2020,03,20,01,55,4.90
2020,03,20,01,56,4.90
2020,03,20,01,57,4.90
2020,03,20,01,58,4.80
2020,03,20,01,59,4.80
2020,03,20,02,00,4.70
2020,03,20,02,01,4.60
2020,03,20,02,02,4.60
2020,03,20,02,03,4.60
2020,03,20,02,04,4.60
2020,03,20,02,05,4.60
2020,03,20,02,06,4.60
2020,03,20,02,07,4.60
2020,03,20,02,08,4.60
2020,03,20,02,09,4.60
2020,03,20,02,10,4.60
2020,03,20,02,11,4.60
2020,03,20,02,12,4.60
2020,03,20,02,13,4.60
2020,03,20,02,14,4.60
2020,03,20,02,15,4.60
2020,03,20,02,16,4.50
2020,03,20,02,17,4.50
2020,03,20,02,18,4.50
2020,03,20,02,19,4.40
2020,03,20,02,20,4.40
2020,03,20,02,21,4.30
2020,03,20,02,22,4.20
2020,03,20,02,23,4.20
2020,03,20,02,24,4.10
2020,03,20,02,25,4.10
2020,03,20,02,26,4.00
2020,03,20,02,27,3.90
2020,03,20,02,28,3.80
2020,03,20,02,29,3.80
2020,03,20,02,30,3.70
2020,03,20,02,31,3.70
2020,03,20,02,32,3.60
2020,03,20,02,33,3.50
2020,03,20,02,34,3.50
2020,03,20,02,35,3.40
2020,03,20,02,36,3.40
2020,03,20,02,37,3.30
2020,03,20,02,38,3.30
2020,03,20,02,39,3.30
2020,03,20,02,40,3.40
2020,03,20,02,41,3.40
2020,03,20,02,42,3.50
2020,03,20,02,43,3.60
2020,03,20,02,44,3.70
2020,03,20,02,45,3.80
2020,03,20,02,46,3.80
2020,03,20,02,47,3.80
2020,03,20,02,48,3.80
2020,03,20,02,49,3.80
2020,03,20,02,50,3.80
2020,03,20,02,51,3.80
2020,03,20,02,52,3.80
2020,03,20,02,53,3.80
2020,03,20,02,54,3.80
2020,03,20,02,55,3.80
2020,03,20,02,56,3.80
2020,03,20,02,57,3.80
2020,03,20,02,58,3.60
2020,03,20,02,59,3.50
2020,03,20,03,00,3.50
2020,03,20,03,01,3.40
2020,03,20,03,02,3.30
2020,03,20,03,03,3.30
2020,03,20,03,04,3.20
2020,03,20,03,05,3.20
2020,03,20,03,06,3.20
2020,03,20,03,07,3.10
2020,03,20,03,08,3.10
2020,03,20,03,09,3.10
2020,03,20,03,10,3.10
2020,03,20,03,11,3.10
2020,03,20,03,12,3.20
2020,03,20,03,13,3.30
2020,03,20,03,14,3.30
2020,03,20,03,15,3.50
2020,03,20,03,16,3.50
2020,03,20,03,17,3.60
2020,03,20,03,18,3.70
2020,03,20,03,19,3.80
2020,03,20,03,20,3.90
2020,03,20,03,21,4.00
2020,03,20,03,22,4.00
2020,03,20,03,23,4.10
2020,03,20,03,24,4.20
2020,03,20,03,25,4.30
2020,03,20,03,26,4.40
2020,03,20,03,27,4.40
2020,03,20,03,28,4.50
2020,03,20,03,29,4.50
2020,03,20,03,30,4.60
2020,03,20,03,31,4.60
2020,03,20,03,32,4.60
2020,03,20,03,33,4.60
2020,03,20,03,34,4.70
2020,03,20,03,35,4.70
2020,03,20,03,36,4.70
2020,03,20,03,37,4.80
2020,03,20,03,38,4.80
2020,03,20,03,39,4.80
2020,03,20,03,40,4.80
2020,03,20,03,41,4.80
2020,03,20,03,42,4.80
2020,03,20,03,43,4.70
2020,03,20,03,44,4.70
2020,03,20,03,45,4.70
2020,03,20,03,46,4.70
2020,03,20,03,47,4.70
2020,03,20,03,48,4.70
2020,03,20,03,49,4.60
2020,03,20,03,50,4.60
2020,03,20,03,51,4.60
2020,03,20,03,52,4.60
2020,03,20,03,53,4.60
2020,03,20,03,54,4.60
2020,03,20,03,55,4.60
2020,03,20,03,56,4.60
2020,03,20,03,57,4.60
2020,03,20,03,58,4.60
2020,03,20,03,59,4.60
2020,03,20,04,00,4.60
2020,03,20,04,01,4.60
2020,03,20,04,02,4.60
2020,03,20,04,03,4.60
2020,03,20,04,04,4.60
2020,03,20,04,05,4.60
2020,03,20,04,06,4.60
2020,03,20,04,07,4.60
2020,03,20,04,08,4.50
2020,03,20,04,09,4.50
2020,03,20,04,10,4.50
2020,03,20,04,11,4.40
2020,03,20,04,12,4.40
2020,03,20,04,13,4.40
2020,03,20,04,14,4.40
2020,03,20,04,15,4.30
2020,03,20,04,16,4.30
2020,03,20,04,17,4.20
2020,03,20,04,18,4.30
2020,03,20,04,19,4.30
2020,03,20,04,20,4.40
2020,03,20,04,21,4.40
2020,03,20,04,22,4.50
2020,03,20,04,23,4.50
2020,03,20,04,24,4.50
2020,03,20,04,25,4.50
2020,03,20,04,26,4.60
2020,03,20,04,27,4.60
2020,03,20,04,28,4.60
2020,03,20,04,29,4.60
2020,03,20,04,30,4.60
2020,03,20,04,31,4.60
2020,03,20,04,32,4.60
2020,03,20,04,33,4.60
2020,03,20,04,34,4.60
2020,03,20,04,35,4.60
2020,03,20,04,36,4.60
2020,03,20,04,37,4.60
2020,03,20,04,38,4.60
2020,03,20,04,39,4.60
2020,03,20,04,40,4.60
2020,03,20,04,41,4.60
2020,03,20,04,42,4.60
2020,03,20,04,43,4.60
2020,03,20,04,44,4.50
2020,03,20,04,45,4.50
2020,03,20,04,46,4.40
2020,03,20,04,47,4.40
2020,03,20,04,48,4.40
2020,03,20,04,49,4.30
2020,03,20,04,50,4.30
2020,03,20,04,51,4.20
2020,03,20,04,52,4.20
2020,03,20,04,53,4.20
2020,03,20,04,54,4.20
2020,03,20,04,55,4.20
2020,03,20,04,56,4.20
2020,03,20,04,57,4.20
2020,03,20,04,58,4.20
2020,03,20,04,59,4.20
2020,03,20,05,00,4.00
2020,03,20,05,01,3.90
2020,03,20,05,02,3.80
2020,03,20,05,03,3.70
2020,03,20,05,04,3.60
2020,03,20,05,05,3.60
2020,03,20,05,06,3.50
2020,03,20,05,07,3.50
2020,03,20,05,08,3.40
2020,03,20,05,09,3.40
2020,03,20,05,10,3.30
2020,03,20,05,11,3.30
2020,03,20,05,12,3.30
2020,03,20,05,13,3.30
2020,03,20,05,14,3.40
2020,03,20,05,15,3.40
2020,03,20,05,16,3.40
2020,03,20,05,17,3.40
2020,03,20,05,18,3.50
2020,03,20,05,19,3.50
2020,03,20,05,20,3.50
2020,03,20,05,21,3.40
2020,03,20,05,22,3.50
2020,03,20,05,23,3.50
2020,03,20,05,24,3.50
2020,03,20,05,25,3.50
2020,03,20,05,26,3.50
2020,03,20,05,27,3.50
2020,03,20,05,28,3.50
2020,03,20,05,29,3.50
2020,03,20,05,30,3.50
2020,03,20,05,31,3.50
2020,03,20,05,32,3.50
2020,03,20,05,33,3.50
2020,03,20,05,34,3.40
2020,03,20,05,35,3.40
2020,03,20,05,36,3.40
2020,03,20,05,37,3.30
2020,03,20,05,38,3.30
2020,03,20,05,39,3.30
2020,03,20,05,40,3.20
2020,03,20,05,41,3.10
2020,03,20,05,42,2.90
2020,03,20,05,43,2.80
2020,03,20,05,44,2.70
2020,03,20,05,45,2.60
2020,03,20,05,46,2.50
2020,03,20,05,47,2.40
2020,03,20,05,48,2.40
2020,03,20,05,49,2.30
2020,03,20,05,50,2.20
2020,03,20,05,51,2.20
2020,03,20,05,52,2.20
2020,03,20,05,53,2.20
2020,03,20,05,54,2.20
2020,03,20,05,55,2.20
2020,03,20,05,56,2.30
2020,03,20,05,57,2.40
2020,03,20,05,58,2.40
2020,03,20,05,59,2.50
2020,03,20,06,00,2.50
2020,03,20,06,01,2.60
2020,03,20,06,02,2.60
2020,03,20,06,03,2.70
2020,03,20,06,04,2.70
2020,03,20,06,05,2.70
2020,03,20,06,06,2.80
2020,03,20,06,07,2.90
2020,03,20,06,08,2.90
2020,03,20,06,09,2.90
2020,03,20,06,10,2.90
2020,03,20,06,11,2.90
2020,03,20,06,12,2.90
2020,03,20,06,13,2.90
2020,03,20,06,14,2.90
2020,03,20,06,15,2.90
2020,03,20,06,16,2.90
2020,03,20,06,17,2.90
2020,03,20,06,18,2.90
2020,03,20,06,19,2.90
2020,03,20,06,20,2.90
2020,03,20,06,21,2.90
2020,03,20,06,22,2.90
2020,03,20,06,23,2.90
2020,03,20,06,24,2.80
2020,03,20,06,25,2.80
2020,03,20,06,26,2.70
2020,03,20,06,27,2.70
2020,03,20,06,28,2.70
2020,03,20,06,29,2.60
2020,03,20,06,30,2.60
2020,03,20,06,31,2.60
2020,03,20,06,32,2.50
2020,03,20,06,33,2.50
2020,03,20,06,34,2.50
2020,03,20,06,35,2.40
2020,03,20,06,36,2.40
2020,03,20,06,37,2.30
2020,03,20,06,38,2.30
2020,03,20,06,39,2.20
2020,03,20,06,40,2.20
2020,03,20,06,41,2.20
2020,03,20,06,42,2.20
2020,03,20,06,43,2.20
2020,03,20,06,44,2.30
2020,03,20,06,45,2.40
2020,03,20,06,46,2.40
2020,03,20,06,47,2.50
2020,03,20,06,48,2.50
2020,03,20,06,49,2.60
2020,03,20,06,50,2.70
2020,03,20,06,51,2.80
2020,03,20,06,52,3.00
2020,03,20,06,53,3.10
2020,03,20,06,54,3.10
2020,03,20,06,55,3.20
2020,03,20,06,56,3.20
2020,03,20,06,57,3.20
2020,03,20,06,58,3.30
2020,03,20,06,59,3.40
2020,03,20,07,00,3.50
2020,03,20,07,01,3.60
2020,03,20,07,02,3.70
2020,03,20,07,03,3.80
2020,03,20,07,04,3.80
2020,03,20,07,05,3.90
2020,03,20,07,06,3.90
2020,03,20,07,07,3.80
2020,03,20,07,08,3.80
2020,03,20,07,09,3.80
2020,03,20,07,10,3.80
2020,03,20,07,11,3.80
2020,03,20,07,12,3.80
2020,03,20,07,13,3.70
2020,03,20,07,14,3.50
2020,03,20,07,15,3.30
2020,03,20,07,16,3.20
2020,03,20,07,17,3.00
2020,03,20,07,18,2.90
2020,03,20,07,19,2.70
2020,03,20,07,20,2.60
2020,03,20,07,21,2.50
2020,03,20,07,22,2.30
2020,03,20,07,23,2.20
2020,03,20,07,24,2.20
2020,03,20,07,25,2.10
2020,03,20,07,26,2.10
2020,03,20,07,27,2.10
2020,03,20,07,28,2.00
2020,03,20,07,29,2.00
2020,03,20,07,30,2.00
2020,03,20,07,31,2.00
2020,03,20,07,32,1.90
2020,03,20,07,33,1.80
2020,03,20,07,34,1.80
2020,03,20,07,35,1.80
2020,03,20,07,36,1.80
2020,03,20,07,37,1.80
2020,03,20,07,38,1.90
2020,03,20,07,39,2.00
2020,03,20,07,40,2.10
2020,03,20,07,41,2.20
2020,03,20,07,42,2.30
2020,03,20,07,43,2.50
2020,03,20,07,44,2.60
2020,03,20,07,45,2.70
2020,03,20,07,46,2.80
2020,03,20,07,47,2.90
2020,03,20,07,48,2.90
2020,03,20,07,49,2.90
2020,03,20,07,50,3.00
2020,03,20,07,51,3.10
2020,03,20,07,52,3.10
2020,03,20,07,53,3.10
2020,03,20,07,54,3.10
2020,03,20,07,55,3.00
2020,03,20,07,56,2.90
2020,03,20,07,57,2.90
2020,03,20,07,58,2.80
2020,03,20,07,59,2.80
2020,03,20,08,00,2.80
2020,03,20,08,01,2.80
2020,03,20,08,02,2.70
2020,03,20,08,03,2.70
2020,03,20,08,04,2.70
2020,03,20,08,05,2.60
2020,03,20,08,06,2.60
2020,03,20,08,07,2.50
2020,03,20,08,08,2.50
2020,03,20,08,09,2.50
2020,03,20,08,10,2.60
2020,03,20,08,11,2.60
2020,03,20,08,12,2.70
2020,03,20,08,13,2.70
2020,03,20,08,14,2.80
2020,03,20,08,15,2.80
2020,03,20,08,16,2.90
2020,03,20,08,17,2.90
2020,03,20,08,18,3.10
2020,03,20,08,19,3.10
2020,03,20,08,20,3.20
2020,03,20,08,21,3.30
2020,03,20,08,22,3.40
2020,03,20,08,23,3.50
2020,03,20,08,24,3.50
2020,03,20,08,25,3.60
2020,03,20,08,26,3.70
2020,03,20,08,27,3.80
2020,03,20,08,28,3.80
2020,03,20,08,29,3.80
2020,03,20,08,30,3.80
2020,03,20,08,31,3.80
2020,03,20,08,32,3.70
2020,03,20,08,33,3.70
2020,03,20,08,34,3.70
2020,03,20,08,35,3.70
2020,03,20,08,36,3.70
2020,03,20,08,37,3.70
2020,03,20,08,38,3.70
2020,03,20,08,39,3.80
2020,03,20,08,40,3.80
2020,03,20,08,41,3.80
2020,03,20,08,42,3.80
2020,03,20,08,43,3.90
2020,03,20,08,44,4.00
2020,03,20,08,45,4.00
2020,03,20,08,46,4.10
2020,03,20,08,47,4.20
2020,03,20,08,48,4.20
2020,03,20,08,49,4.20
2020,03,20,08,50,4.30
2020,03,20,08,51,4.30
2020,03,20,08,52,4.40
2020,03,20,08,53,4.40
2020,03,20,08,54,4.50
2020,03,20,08,55,4.50
2020,03,20,08,56,4.50
2020,03,20,08,57,4.60
2020,03,20,08,58,4.60
2020,03,20,08,59,4.60
2020,03,20,09,00,4.70
2020,03,20,09,01,4.70
2020,03,20,09,02,4.80
2020,03,20,09,03,4.90
2020,03,20,09,04,4.90
2020,03,20,09,05,5.00
2020,03,20,09,06,5.10
2020,03,20,09,07,5.10
2020,03,20,09,08,5.10
2020,03,20,09,09,5.20
2020,03,20,09,10,5.30
2020,03,20,09,11,5.30
2020,03,20,09,12,5.40
2020,03,20,09,13,5.40
2020,03,20,09,14,5.50
2020,03,20,09,15,5.50
2020,03,20,09,16,5.50
2020,03,20,09,17,5.60
2020,03,20,09,18,5.70
2020,03,20,09,19,5.70
2020,03,20,09,20,5.80
2020,03,20,09,21,5.90
2020,03,20,09,22,6.00
2020,03,20,09,23,6.00
2020,03,20,09,24,6.20
2020,03,20,09,25,6.20
2020,03,20,09,26,6.30
2020,03,20,09,27,6.30
2020,03,20,09,28,6.40
2020,03,20,09,29,6.60
2020,03,20,09,30,6.70
2020,03,20,09,31,6.80
2020,03,20,09,32,6.90
2020,03,20,09,33,7.00
2020,03,20,09,34,7.10
2020,03,20,09,35,7.20
2020,03,20,09,36,7.40
2020,03,20,09,37,7.50
2020,03,20,09,38,7.60
2020,03,20,09,39,7.60
2020,03,20,09,40,7.60
2020,03,20,09,41,7.70
2020,03,20,09,42,7.80
2020,03,20,09,43,7.80
2020,03,20,09,44,7.80
2020,03,20,09,45,7.90
2020,03,20,09,46,8.00
2020,03,20,09,47,8.10
2020,03,20,09,48,8.20
2020,03,20,09,49,8.20
2020,03,20,09,50,8.30
2020,03,20,09,51,8.40
2020,03,20,09,52,8.50
2020,03,20,09,53,8.60
2020,03,20,09,54,8.70
2020,03,20,09,55,8.70
2020,03,20,09,56,8.70
2020,03,20,09,57,8.70
2020,03,20,09,58,8.80
2020,03,20,09,59,8.90
2020,03,20,10,00,8.90
2020,03,20,10,01,8.90
2020,03,20,10,02,8.90
2020,03,20,10,03,8.90
2020,03,20,10,04,8.90
2020,03,20,10,05,9.00
2020,03,20,10,06,9.00
2020,03,20,10,07,9.00
2020,03,20,10,08,9.10
2020,03,20,10,09,9.10
2020,03,20,10,10,9.20
2020,03,20,10,11,9.20
2020,03,20,10,12,9.20
2020,03,20,10,13,9.20
2020,03,20,10,14,9.20
2020,03,20,10,15,9.20
2020,03,20,10,16,9.30
2020,03,20,10,17,9.30
2020,03,20,10,18,9.40
2020,03,20,10,19,9.40
2020,03,20,10,20,9.40
2020,03,20,10,21,9.50
2020,03,20,10,22,9.50
2020,03,20,10,23,9.50
2020,03,20,10,24,9.50
2020,03,20,10,25,9.40
2020,03,20,10,26,9.40
2020,03,20,10,27,9.40
2020,03,20,10,28,9.50
2020,03,20,10,29,9.50
2020,03,20,10,30,9.50
2020,03,20,10,31,9.50
2020,03,20,10,32,9.50
2020,03,20,10,33,9.50
2020,03,20,10,34,9.60
2020,03,20,10,35,9.50
2020,03,20,10,36,9.40
2020,03,20,10,37,9.20
2020,03,20,10,38,9.20
2020,03,20,10,39,9.20
2020,03,20,10,40,9.20
2020,03,20,10,41,9.20
2020,03,20,10,42,9.20
2020,03,20,10,43,9.20
2020,03,20,10,44,9.20
2020,03,20,10,45,9.30
2020,03,20,10,46,9.40
2020,03,20,10,47,9.40
2020,03,20,10,48,9.40
2020,03,20,10,49,9.40
2020,03,20,10,50,9.30
2020,03,20,10,51,9.30
2020,03,20,10,52,9.30
2020,03,20,10,53,9.30
2020,03,20,10,54,9.30
2020,03,20,10,55,9.30
2020,03,20,10,56,9.20
2020,03,20,10,57,9.20
2020,03,20,10,58,9.20
2020,03,20,10,59,9.10
2020,03,20,11,00,9.10
2020,03,20,11,01,9.10
2020,03,20,11,02,9.10
2020,03,20,11,03,9.10
2020,03,20,11,04,9.20
2020,03,20,11,05,9.30
2020,03,20,11,06,9.40
2020,03,20,11,07,9.40
2020,03,20,11,08,9.40
2020,03,20,11,09,9.40
2020,03,20,11,10,9.30
2020,03,20,11,11,9.10
2020,03,20,11,12,9.00
2020,03,20,11,13,9.00
2020,03,20,11,14,9.00
2020,03,20,11,15,9.00
2020,03,20,11,16,9.10
2020,03,20,11,17,9.10
2020,03,20,11,18,9.20
2020,03,20,11,19,9.20
2020,03,20,11,20,9.20
2020,03,20,11,21,9.20
2020,03,20,11,22,9.20
2020,03,20,11,23,9.30
2020,03,20,11,24,9.40
2020,03,20,11,25,9.40
2020,03,20,11,26,9.50
2020,03,20,11,27,9.60
2020,03,20,11,28,9.70
2020,03,20,11,29,9.70
2020,03,20,11,30,9.70
2020,03,20,11,31,9.70
2020,03,20,11,32,9.60
2020,03,20,11,33,9.60
2020,03,20,11,34,9.50
2020,03,20,11,35,9.50
2020,03,20,11,36,9.50
2020,03,20,11,37,9.50
2020,03,20,11,38,9.50
2020,03,20,11,39,9.60
2020,03,20,11,40,9.60
2020,03,20,11,41,9.70
2020,03,20,11,42,9.70
2020,03,20,11,43,9.70
2020,03,20,11,44,9.70
2020,03,20,11,45,9.70
2020,03,20,11,46,9.70
2020,03,20,11,47,9.80
2020,03,20,11,48,9.90
2020,03,20,11,49,9.90
2020,03,20,11,50,9.90
2020,03,20,11,51,10.10
2020,03,20,11,52,10.20
2020,03,20,11,53,10.30
2020,03,20,11,54,10.40
2020,03,20,11,55,10.40
2020,03,20,11,56,10.60
2020,03,20,11,57,10.70
2020,03,20,11,58,10.80
2020,03,20,11,59,10.90
2020,03,20,12,00,11.00
2020,03,20,12,01,11.00
2020,03,20,12,02,10.90
2020,03,20,12,03,10.90
2020,03,20,12,04,10.90
2020,03,20,12,05,10.90
2020,03,20,12,06,10.90
2020,03,20,12,07,10.90
2020,03,20,12,08,10.80
2020,03,20,12,09,10.80
2020,03,20,12,10,10.80
2020,03,20,12,11,10.90
2020,03,20,12,12,10.90
2020,03,20,12,13,10.90
2020,03,20,12,14,10.90
2020,03,20,12,15,10.90
2020,03,20,12,16,11.00
2020,03,20,12,17,11.10
2020,03,20,12,18,11.20
2020,03,20,12,19,11.20
2020,03,20,12,20,11.10
2020,03,20,12,21,10.90
2020,03,20,12,22,11.00
2020,03,20,12,23,11.10
2020,03,20,12,24,11.10
2020,03,20,12,25,11.10
2020,03,20,12,26,11.10
2020,03,20,12,27,11.10
2020,03,20,12,28,11.20
2020,03,20,12,29,11.20
2020,03,20,12,30,11.20
2020,03,20,12,31,11.10
2020,03,20,12,32,11.10
2020,03,20,12,33,11.10
2020,03,20,12,34,11.20
2020,03,20,12,35,11.30
2020,03,20,12,36,11.40
2020,03,20,12,37,11.30
2020,03,20,12,38,11.30
2020,03,20,12,39,11.20
2020,03,20,12,40,11.30
2020,03,20,12,41,11.30
2020,03,20,12,42,11.30
2020,03,20,12,43,11.30
2020,03,20,12,44,11.40
2020,03,20,12,45,11.40
2020,03,20,12,46,11.40
2020,03,20,12,47,11.40
2020,03,20,12,48,11.50
2020,03,20,12,49,11.40
2020,03,20,12,50,11.30
2020,03,20,12,51,11.30
2020,03,20,12,52,11.20
2020,03,20,12,53,11.20
2020,03,20,12,54,11.20
2020,03,20,12,55,11.10
2020,03,20,12,56,11.10
2020,03,20,12,57,11.10
2020,03,20,12,58,11.10
2020,03,20,12,59,11.10
2020,03,20,13,00,11.10
2020,03,20,13,01,11.10
2020,03,20,13,02,11.00
2020,03,20,13,03,10.90
2020,03,20,13,04,10.90
2020,03,20,13,05,10.90
2020,03,20,13,06,10.90
2020,03,20,13,07,11.00
2020,03,20,13,08,11.10
2020,03,20,13,09,11.10
2020,03,20,13,10,11.20
2020,03,20,13,11,11.30
2020,03,20,13,12,11.40
2020,03,20,13,13,11.40
2020,03,20,13,14,11.30
2020,03,20,13,15,11.20
2020,03,20,13,16,11.10
2020,03,20,13,17,11.10
2020,03,20,13,18,11.10
2020,03,20,13,19,11.10
2020,03,20,13,20,11.20
2020,03,20,13,21,11.40
2020,03,20,13,22,11.40
2020,03,20,13,23,11.40
2020,03,20,13,24,11.30
2020,03,20,13,25,11.20
2020,03,20,13,26,11.20
2020,03,20,13,27,11.20
2020,03,20,13,28,11.30
2020,03,20,13,29,11.30
2020,03,20,13,30,11.30
2020,03,20,13,31,11.30
2020,03,20,13,32,11.40
2020,03,20,13,33,11.40
2020,03,20,13,34,11.40
2020,03,20,13,35,11.50
2020,03,20,13,36,11.60
2020,03,20,13,37,11.60
2020,03,20,13,38,11.40
2020,03,20,13,39,11.40
2020,03,20,13,40,11.40
2020,03,20,13,41,11.40
2020,03,20,13,42,11.30
2020,03,20,13,43,11.30
2020,03,20,13,44,11.30
2020,03,20,13,45,11.30
2020,03,20,13,46,11.30
2020,03,20,13,47,11.40
2020,03,20,13,48,11.50
2020,03,20,13,49,11.60
2020,03,20,13,50,11.60
2020,03,20,13,51,11.50
2020,03,20,13,52,11.40
2020,03,20,13,53,11.40
2020,03,20,13,54,11.40
2020,03,20,13,55,11.40
2020,03,20,13,56,11.40
2020,03,20,13,57,11.50
2020,03,20,13,58,11.60
2020,03,20,13,59,11.70
2020,03,20,14,00,11.80
2020,03,20,14,01,11.80
2020,03,20,14,02,11.80
2020,03,20,14,03,11.80
2020,03,20,14,04,11.80
2020,03,20,14,05,11.80
2020,03,20,14,06,11.80
2020,03,20,14,07,11.70
2020,03,20,14,08,11.80
2020,03,20,14,09,11.80
2020,03,20,14,10,11.70
2020,03,20,14,11,11.60
2020,03,20,14,12,11.50
2020,03,20,14,13,11.40
2020,03,20,14,14,11.30
2020,03,20,14,15,11.30
2020,03,20,14,16,11.40
2020,03,20,14,17,11.60
2020,03,20,14,18,11.60
2020,03,20,14,19,11.70
2020,03,20,14,20,11.80
2020,03,20,14,21,11.90
2020,03,20,14,22,11.90
2020,03,20,14,23,11.90
2020,03,20,14,24,11.90
2020,03,20,14,25,11.90
2020,03,20,14,26,12.00
2020,03,20,14,27,11.90
2020,03,20,14,28,11.90
2020,03,20,14,29,11.90
2020,03,20,14,30,11.90
2020,03,20,14,31,11.90
2020,03,20,14,32,12.00
2020,03,20,14,33,12.00
2020,03,20,14,34,12.00
2020,03,20,14,35,12.00
2020,03,20,14,36,11.80
2020,03,20,14,37,11.70
2020,03,20,14,38,11.60
2020,03,20,14,39,11.60
2020,03,20,14,40,11.60
2020,03,20,14,41,11.60
2020,03,20,14,42,11.50
2020,03,20,14,43,11.40
2020,03,20,14,44,11.50
2020,03,20,14,45,11.60
2020,03,20,14,46,11.60
2020,03,20,14,47,11.60
2020,03,20,14,48,11.60
2020,03,20,14,49,11.60
2020,03,20,14,50,11.60
2020,03,20,14,51,11.60
2020,03,20,14,52,11.60
2020,03,20,14,53,11.60
2020,03,20,14,54,11.50
2020,03,20,14,55,11.60
2020,03,20,14,56,11.60
2020,03,20,14,57,11.60
2020,03,20,14,58,11.60
2020,03,20,14,59,11.80
2020,03,20,15,00,11.90
2020,03,20,15,01,12.10
2020,03,20,15,02,12.10
2020,03,20,15,03,12.20
2020,03,20,15,04,12.10
2020,03,20,15,05,12.00
2020,03,20,15,06,12.00
2020,03,20,15,07,12.10
2020,03,20,15,08,12.10
2020,03,20,15,09,12.20
2020,03,20,15,10,12.30
2020,03,20,15,11,12.30
2020,03,20,15,12,12.20
2020,03,20,15,13,12.10
2020,03,20,15,14,12.10
2020,03,20,15,15,12.00
2020,03,20,15,16,12.00
2020,03,20,15,17,11.80
2020,03,20,15,18,11.70
2020,03,20,15,19,11.70
2020,03,20,15,20,11.70
2020,03,20,15,21,11.70
2020,03,20,15,22,11.80
2020,03,20,15,23,11.80
2020,03,20,15,24,11.80
2020,03,20,15,25,11.80
2020,03,20,15,26,11.90
2020,03,20,15,27,12.00
2020,03,20,15,28,12.00
2020,03,20,15,29,12.00
2020,03,20,15,30,11.90
2020,03,20,15,31,11.90
2020,03,20,15,32,12.00
2020,03,20,15,33,12.00
2020,03,20,15,34,12.00
2020,03,20,15,35,11.90
2020,03,20,15,36,11.80
2020,03,20,15,37,11.80
2020,03,20,15,38,11.70
2020,03,20,15,39,11.60
2020,03,20,15,40,11.60
2020,03,20,15,41,11.60
2020,03,20,15,42,11.60
2020,03,20,15,43,11.50
2020,03,20,15,44,11.40
2020,03,20,15,45,11.30
2020,03,20,15,46,11.30
2020,03,20,15,47,11.30
2020,03,20,15,48,11.20
2020,03,20,15,49,11.20
2020,03,20,15,50,11.20
2020,03,20,15,51,11.30
2020,03,20,15,52,11.40
2020,03,20,15,53,11.40
2020,03,20,15,54,11.40
2020,03,20,15,55,11.60
2020,03,20,15,56,11.60
2020,03,20,15,57,11.60
2020,03,20,15,58,11.60
2020,03,20,15,59,11.60
2020,03,20,16,00,11.70
2020,03,20,16,01,11.70
2020,03,20,16,02,11.60
2020,03,20,16,03,11.60
2020,03,20,16,04,11.50
2020,03,20,16,05,11.60
2020,03,20,16,06,11.60
2020,03,20,16,07,11.60
2020,03,20,16,08,11.60
2020,03,20,16,09,11.70
2020,03,20,16,10,11.70
2020,03,20,16,11,11.80
2020,03,20,16,12,11.80
2020,03,20,16,13,12.00
2020,03,20,16,14,12.10
2020,03,20,16,15,12.20
2020,03,20,16,16,12.30
2020,03,20,16,17,12.20
2020,03,20,16,18,12.20
2020,03,20,16,19,12.20
2020,03,20,16,20,12.30
2020,03,20,16,21,12.30
2020,03,20,16,22,12.30
2020,03,20,16,23,12.40
2020,03,20,16,24,12.50
2020,03,20,16,25,12.70
2020,03,20,16,26,12.70
2020,03,20,16,27,12.70
2020,03,20,16,28,12.70
2020,03,20,16,29,12.80
2020,03,20,16,30,12.80
2020,03,20,16,31,12.70
2020,03,20,16,32,12.70
2020,03,20,16,33,12.60
2020,03,20,16,34,12.50
2020,03,20,16,35,12.50
2020,03,20,16,36,12.50
2020,03,20,16,37,12.50
2020,03,20,16,38,12.60
2020,03,20,16,39,12.60
2020,03,20,16,40,12.60
2020,03,20,16,41,12.60
2020,03,20,16,42,12.60
2020,03,20,16,43,12.60
2020,03,20,16,44,12.70
2020,03,20,16,45,12.70
2020,03,20,16,46,12.70
2020,03,20,16,47,12.60
2020,03,20,16,48,12.60
2020,03,20,16,49,12.60
2020,03,20,16,50,12.60
2020,03,20,16,51,12.60
2020,03,20,16,52,12.60
2020,03,20,16,53,12.70
2020,03,20,16,54,12.70
2020,03,20,16,55,12.70
2020,03,20,16,56,12.80
2020,03,20,16,57,12.80
2020,03,20,16,58,13.00
2020,03,20,16,59,13.00
2020,03,20,17,00,13.00
2020,03,20,17,01,13.00
2020,03,20,17,02,13.00
2020,03,20,17,03,13.00
2020,03,20,17,04,13.10
2020,03,20,17,05,13.10
2020,03,20,17,06,13.30
2020,03,20,17,07,13.30
2020,03,20,17,08,13.40
2020,03,20,17,09,13.30
2020,03,20,17,10,13.20
2020,03,20,17,11,13.10
2020,03,20,17,12,13.00
2020,03,20,17,13,13.00
2020,03,20,17,14,12.90
2020,03,20,17,15,12.90
2020,03,20,17,16,12.80
2020,03,20,17,17,12.80
2020,03,20,17,18,12.80
2020,03,20,17,19,12.90
2020,03,20,17,20,12.90
2020,03,20,17,21,12.90
2020,03,20,17,22,12.80
2020,03,20,17,23,12.70
2020,03,20,17,24,12.60
2020,03,20,17,25,12.60
2020,03,20,17,26,12.50
2020,03,20,17,27,12.50
2020,03,20,17,28,12.50
2020,03,20,17,29,12.50
2020,03,20,17,30,12.50
2020,03,20,17,31,12.50
2020,03,20,17,32,12.50
2020,03,20,17,33,12.50
2020,03,20,17,34,12.50
2020,03,20,17,35,12.50
2020,03,20,17,36,12.40
2020,03,20,17,37,12.30
2020,03,20,17,38,12.30
2020,03,20,17,39,12.30
2020,03,20,17,40,12.40
2020,03,20,17,41,12.30
2020,03,20,17,42,12.30
2020,03,20,17,43,12.20
2020,03,20,17,44,12.20
2020,03,20,17,45,12.20
2020,03,20,17,46,12.10
2020,03,20,17,47,12.10
2020,03,20,17,48,12.10
2020,03,20,17,49,12.10
2020,03,20,17,50,12.00